[Date Prev][Date Next][Thread Prev][Thread Next] - [Date Index][Thread Index][Author Index]
2 Line ISS Keps 3-12
- Subject: [sarex] 2 Line ISS Keps 3-12
- From: "Dave Larsen PhD" <doc@xxxxxxxxxxx>
- Date: Sat, 11 Mar 2006 20:38:14 -0800
ISS
1 25544U 98067A 06070.99978941 .00018324 00000-0 12822-3 0 5104
2 25544 051.6456 327.4970 0008401 356.5675 126.8780 15.74285130417843
----
Via the sarex mailing list at AMSAT.ORG courtesy of AMSAT-NA.
To unsubscribe, send "unsubscribe sarex" to Majordomo@amsat.org
AMSAT Home